This demonstration page uses our WeatherBlox Daily Observations layout. Learn more.

Left ArrowRight Arrow

38.80484, -77.04692

Hourly Observations for May 2, 2019

Temp ( °F °C ) Dew Point ( °F °C ) Humidity (%) Winds ( mph kmh ) Pressure ( in mb ) Visibility ( mi km ) Precip ( " mm )
12:52 am 00:52 Mostly Cloudy 61 16.1 57 13.9 87 87 ENE 3 6 30.15 1021 9 14 N/A
1:06 am 01:06 Mostly Cloudy 61 16.1 57 13.9 87 87 N N/A 30.15 1021 9 14 N/A
1:52 am 01:52 Mostly Cloudy with Mist and Fog 60 15.6 57 13.9 90 90 E 3 6 30.13 1020 6 10 N/A
2:06 am 02:06 Mostly Cloudy with Mist and Fog 60 15.6 57 13.9 90 90 N N/A 30.13 1020 6 10 N/A
2:18 am 02:18 Mostly Cloudy with Mist and Fog 60 15.6 57 13.9 90 90 NE 3 6 30.13 1020 5 8 N/A
2:52 am 02:52 Cloudy with Mist and Fog 60 15.6 57 13.9 90 90 NE 5 7 30.12 1020 5 8 N/A
3:04 am 03:04 Cloudy with Mist and Fog 60 15.6 57 13.9 90 90 NE 5 7 30.12 1020 5 8 N/A
3:52 am 03:52 Cloudy with Mist and Fog 61 16.1 58 14.4 90 90 E 3 6 30.11 1020 4 6 N/A
4:04 am 04:04 Cloudy with Mist and Fog 61 16.1 58 14.4 90 90 E 3 6 30.12 1020 3 4 N/A
4:52 am 04:52 Cloudy with Mist and Fog 61 16.1 58 14.4 90 90 N N/A 30.11 1020 3 4 N/A
5:05 am 05:05 Cloudy with Mist and Fog 60 15.6 58 14.4 93 93 N N/A 30.12 1020 2 3 N/A
5:14 am 05:14 Cloudy with Mist and Fog 61 16.1 58 14.4 90 90 N N/A 30.12 1020 2 3 N/A
5:31 am 05:31 Cloudy with Mist and Fog 60 15.6 58 14.4 93 93 N N/A 30.11 1020 2 3 N/A
5:52 am 05:52 Cloudy with Mist and Fog 60 15.6 58 14.4 93 93 N N/A 30.11 1020 1 2 N/A
6:27 am 06:27 Cloudy with Mist and Fog 61 16.1 58 14.4 90 90 ESE 3 6 30.12 1020 1 1 N/A
6:33 am 06:33 Cloudy with Fog 60 15.6 58 14.4 93 93 N N/A 30.13 1020 1 1 N/A
6:52 am 06:52 Cloudy with Fog 61 16.1 58 14.4 90 90 NE 3 6 30.14 1021 1 1 N/A
7:19 am 07:19 Cloudy with Mist and Fog 61 16.1 59 15 93 93 ESE 3 6 30.14 1021 1 2 N/A
7:52 am 07:52 Mostly Cloudy with Mist and Fog 62 16.7 59 15 90 90 ENE 3 6 30.15 1021 2 2 N/A
8:19 am 08:19 Cloudy with Mist and Fog 62 16.7 59 15 90 90 N N/A 30.15 1021 2 3 N/A
8:47 am 08:47 Cloudy with Mist and Fog 63 17 59 15 88 88 N N/A 30.15 1021 2 3 N/A
8:52 am 08:52 Cloudy with Mist and Fog 63 17.2 59 15 87 87 N N/A 30.14 1021 2 3 N/A
9:16 am 09:16 Cloudy with Haze 65 18.3 60 15.6 84 84 SSE 3 6 30.14 1021 3 5 N/A
9:52 am 09:52 Cloudy with Haze 67 19.4 60 15.6 79 79 ESE 5 7 30.14 1021 4 6 N/A
10:52 am 10:52 Mostly Cloudy 74 23.3 63 17.2 69 69 S 8 13 30.13 1020 10 16 N/A
11:52 am 11:52 Mostly Cloudy 78 25.6 65 18.3 64 64 S 10 17 30.12 1020 10 16 N/A
12:52 pm 12:52 Partly Cloudy 81 27.2 66 18.9 61 61 S 9 15 30.11 1020 10 16 N/A
2:52 pm 14:52 Partly Cloudy 86 30 64 17.8 48 48 S 14 22 30.06 1018 10 16 N/A
3:52 pm 15:52 Mostly Cloudy 83 28.3 63 17.2 51 51 S 9 15 30.04 1017 10 16 N/A
3:59 pm 15:59 Mostly Cloudy with Thunderstorms 79 26.1 62 16.7 56 56 S 12 19 30.06 1018 10 16 N/A
4:23 pm 16:23 Windy with Storms Likely 71 21.7 65 18.3 81 81 NNW 21 33 30.07 1018 9 14 N/A
4:29 pm 16:29 Cloudy with Strong Thunderstorms 70 21.1 65 18.3 84 84 NNW 17 28 30.10 1019 3 4 0.06 1.52
4:33 pm 16:33 Cloudy with Strong Thunderstorms 70 21.1 66 18.9 87 87 NNW 14 22 30.09 1019 2 2 0.10 2.54
4:46 pm 16:46 Mostly Cloudy with Thunderstorms 70 21 64 18 83 83 E 7 11 30.05 1018 3 5 0.32 8.13
4:52 pm 16:52 Mostly Cloudy with Thunderstorms 69 20.6 66 18.9 90 90 E 9 15 30.05 1018 7 11 0.32 8.13
4:57 pm 16:57 Mostly Cloudy with Light Rain 70 21.1 66 18.9 87 87 E 6 9 30.06 1018 10 16 N/A
5:29 pm 17:29 Mostly Cloudy with Thunderstorms 70 21.1 66 18.9 87 87 VRB 3 6 30.06 1018 8 13 0.02 0.51
5:52 pm 17:52 Mostly Cloudy with Thunderstorms 71 21.7 66 18.9 84 84 VRB 3 6 30.09 1019 7 11 0.06 1.52
6:14 pm 18:14 Mostly Cloudy with Thunderstorms 71 21.7 66 18.9 84 84 SSE 5 7 30.09 1019 10 16 N/A
6:46 pm 18:46 Cloudy with Light Rain 70 21 66 19 88 88 N N/A 30.08 1019 10 16 0.04 1.02
6:52 pm 18:52 Cloudy with Rain 70 21.1 66 18.9 87 87 SSE 3 6 30.06 1018 4 6 0.05 1.27
7:06 pm 19:06 Cloudy with Nearby Thunderstorms 70 21.1 66 18.9 87 87 SSW 3 6 30.06 1018 6 10 0.05 1.27
7:22 pm 19:22 Mostly Cloudy with Nearby Thunderstorms 70 21.1 66 18.9 87 87 N 3 6 30.07 1018 10 16 0.05 1.27
7:39 pm 19:39 Mostly Cloudy 70 21.1 66 18.9 87 87 N 6 9 30.08 1019 10 16 0.05 1.27
7:49 pm 19:49 Mostly Cloudy with Nearby Thunderstorms 72 22 66 19 83 83 NNE 5 7 30.07 1018 10 16 0.05 1.27
7:52 pm 19:52 Mostly Cloudy with Nearby Thunderstorms 71 21.7 66 18.9 84 84 NNE 5 7 30.07 1018 10 16 0.05 1.27
8:07 pm 20:07 Mostly Cloudy 70 21.1 66 18.9 87 87 NNE 6 9 30.07 1018 10 16 N/A
8:52 pm 20:52 Mostly Cloudy 69 20.6 66 18.9 90 90 ENE 5 7 30.08 1019 10 16 N/A
9:52 pm 21:52 Mostly Cloudy 69 20.6 66 18.9 90 90 SSE 5 7 30.08 1019 10 16 N/A
10:52 pm 22:52 Cloudy 68 20 66 18.9 93 93 S 7 11 30.08 1019 8 13 N/A
11:27 pm 23:27 Cloudy with Thunderstorms 69 20.6 66 18.9 90 90 SE 5 7 30.09 1019 10 16 N/A
11:52 pm 23:52 Cloudy with Thunderstorms 69 20.6 66 18.9 90 90 S 6 9 30.08 1019 8 13 N/A

Powered by AerisWeather